User: anonymous   Login
Location: Chuathbaluk
(61.5726°N, 159.2454°W)
Time: 13:16:21
(UTC+00:00)
Language:

XW-2F - Orbit

View from above orbital plane
View from above orbital plane
View from above satellite
View from above satellite

Ground track
Ground track

The orbit data is extracted from the following two-line orbital elements,

1 40910U 15049M   21016.11801813  .00001464  00000-0  74086-4 0  9990
2 40910  97.4701  23.0704 0014123 347.5894  80.7974 15.18521655294606
Epoch (UTC): 16 January 2021 02:49:56
Eccentricity: 0.0014123
inclination: 97.4701°
perigee height: 500 km
apogee height: 520 km
right ascension of ascending node: 23.0704°
argument of perigee: 347.5894°
revolutions per day: 15.18521655
mean anomaly at epoch: 80.7974°
orbit number at epoch: 29460

The dashed part of the orbit path shows where the satellite is in the earth's shadow,  

DLR